Location: Chilton Park
(37.7711°N, 100.0276°W)
Time: 21:39:13
(UTC+00:00)

Cosmos 2227 Rocket - Pass Details

Date: 05 July 2022
Orbit: 839 x 844 km, 71.0° (Epoch: 07 August)

Event Time Altitude Azimuth Distance (km) Brightness Sun altitude
Exits shadow 09:55:16 18° 252° (WSW) 1,946 3.6 -14.7°
Maximum altitude 09:58:30 31° 301° (WNW) 1,451 3.3 -14.3°
Drops below altitude 10° 10:03:29 10° 2° (N) 2,471 5.3 -13.6°
Sets 10:06:14 0° 13° (NNE) 3,409 6.4 -13.2°
